Погода в Алмаке

Россия / Республика Дагестан     42°59′08″N   46°34′45″E
темп.,
°C
ветер,
м/с
пор.,
м/с
влажн.,
%
обл.,
%
осадки,
мм/ч
давл.,
гПа
погр.,
м
26 июня, вс
вс2600:00+15ю1186100 0.0 100911
03:00+15ююз3387100 1.1 100962
06:00+16юз1184100 0.0 100984
09:00+19ссв2268100 0.0 1007748
12:00+19ссз2273100 0.0 1008674
15:00+20сз1171100 0.3 1007764
18:00+19сз2276100 0.1 1007391
21:00+16ююз2287100 0.8 101031
27 июня, пн
пн2700:00+15зюз2296100 0.8 101042
03:00+14ююз33930 0.8 101041
06:00+15зюз249329 0.0 1011261
09:00+20сз33696 0.0 1010719
12:00+23сз445965 0.0 10101305
15:00+21зсз336679 0.3 1011928
18:00+19зсз138070 0.4 1011284
21:00+17юз2289100 0.6 101342
28 июня, вт
вт2800:00+16з2292100 0.1 1012126
03:00+15з239899 0.2 1012136
06:00+16зсз229459 0.0 1012203
09:00+19сз337015 0.1 1012757
12:00+22ссз435032 0.0 10111383
15:00+23с324655 0.0 10111726
18:00+20с236469 0.1 1013195
21:00+16ю017133 0.2 101511
29 июня, ср
ср2900:00+14ю22721 0.0 101523
03:00+15ю226985 0.0 101421
06:00+17ююв116671 0.0 101457
09:00+21св325045 0.1 10141063
12:00+22св225182 0.6 10141230
15:00+23всв324863 0.9 10131574
18:00+19в3572100 0.2 1014303
21:00+15ю228695 1.4 101531
30 июня, чт
чт3000:00+15ю1183100 0.0 101512
03:00+14юв1188100 0.0 101513
06:00+16всв118515 0.0 1014157
09:00+18ссв328294 0.1 1014670
12:00+18св2282100 0.7 1014676
15:00+18всв227999 1.8 1014614
18:00+16св128190 0.4 1015253
21:00+13ююз119121 0.6 101719